UAL51 KLAX-PHTO

Flight info

Callsign UAL51
Flight time N/A
Altitude 38000
Route SUMMR2 FICKY R578 FLITY/N0489F400 R578 FITES NOMEA LYCHI1
Aircraft B789/H-SDE1E2E3FGHIJ2J3J4J5M1RWXY/LB1D1

Departure

Time 2026-05-05 02:40
Airport Los Angeles International Airport (KLAX)

Arrival

Time N/A
Airport Hilo International Airport (PHTO)
Time Latitude Longitude Altitude Speed Heading
2026-05-05 02:27 33.94546 -118.40983 126 ft 0 kts 263°
2026-05-05 02:33 33.94547 -118.40969 126 ft 2 kts 264°
2026-05-05 02:33 33.94548 -118.40949 127 ft 2 kts 268°
2026-05-05 02:33 33.94548 -118.40929 127 ft 2 kts 274°
2026-05-05 02:33 33.94546 -118.40909 126 ft 2 kts 287°
2026-05-05 02:34 33.94538 -118.40892 125 ft 2 kts 324°
2026-05-05 02:34 33.94522 -118.40886 125 ft 2 kts 353°
2026-05-05 02:34 33.94514 -118.40885 125 ft 0 kts 353°
2026-05-05 02:35 33.94539 -118.40889 125 ft 10 kts 353°
2026-05-05 02:35 33.94563 -118.40892 126 ft 0 kts 353°
2026-05-05 02:36 33.94589 -118.40896 128 ft 10 kts 352°
2026-05-05 02:36 33.94699 -118.40917 128 ft 21 kts 357°
2026-05-05 02:36 33.94834 -118.40856 127 ft 17 kts 52°
2026-05-05 02:36 33.94854 -118.40697 131 ft 25 kts 83°
2026-05-05 02:37 33.94881 -118.40432 128 ft 38 kts 82°
2026-05-05 02:37 33.94916 -118.40113 127 ft 36 kts 83°
2026-05-05 02:37 33.94930 -118.39984 131 ft 11 kts 83°
2026-05-05 02:37 33.94930 -118.39977 131 ft 0 kts 83°
2026-05-05 02:38 33.94931 -118.39976 131 ft 0 kts 83°
2026-05-05 02:38 33.94939 -118.39950 127 ft 0 kts 60°
2026-05-05 02:39 33.94940 -118.39950 127 ft 1 kts 59°
2026-05-05 02:39 33.95032 -118.39926 128 ft 17 kts 329°
2026-05-05 02:39 33.95040 -118.40056 129 ft 32 kts 257°
2026-05-05 02:39 33.94961 -118.40648 125 ft 109 kts 259°
2026-05-05 02:40 33.94852 -118.41822 205 ft 164 kts 261°
2026-05-05 02:40 33.94745 -118.43285 656 ft 187 kts 265°
2026-05-05 02:40 33.94697 -118.44935 1275 ft 207 kts 265°
2026-05-05 02:40 33.94566 -118.46670 2143 ft 216 kts 265°
2026-05-05 02:41 33.94461 -118.48595 2619 ft 244 kts 262°
2026-05-05 02:41 33.94222 -118.50877 3816 ft 244 kts 263°
2026-05-05 02:41 33.93898 -118.55022 5813 ft 252 kts 265°
2026-05-05 02:41 33.93567 -118.59301 7716 ft 263 kts 263°
2026-05-05 02:42 33.93217 -118.63734 9627 ft 270 kts 263°
2026-05-05 02:42 33.92850 -118.68438 10760 ft 303 kts 263°
2026-05-05 02:42 33.92424 -118.73943 11246 ft 354 kts 263°
2026-05-05 02:42 33.91955 -118.79968 12042 ft 367 kts 263°
2026-05-05 02:43 33.91748 -118.86031 12345 ft 363 kts 271°
2026-05-05 02:43 33.91974 -118.92072 14242 ft 364 kts 270°
2026-05-05 02:43 33.90772 -119.02544 16764 ft 372 kts 240°
2026-05-05 02:43 33.83068 -119.11097 19473 ft 382 kts 221°
2026-05-05 02:44 33.75099 -119.19455 21890 ft 389 kts 222°
2026-05-05 02:44 33.66722 -119.28135 23985 ft 397 kts 222°
2026-05-05 02:44 33.58435 -119.36687 25791 ft 398 kts 222°
2026-05-05 02:44 33.50002 -119.45366 27519 ft 400 kts 221°
2026-05-05 02:45 33.41528 -119.54063 29177 ft 402 kts 221°
2026-05-05 02:45 33.32970 -119.62823 30428 ft 407 kts 221°
2026-05-05 02:45 33.24297 -119.71677 31341 ft 412 kts 221°
2026-05-05 02:45 33.15513 -119.80620 32396 ft 411 kts 221°
2026-05-05 02:46 33.06962 -119.89304 33679 ft 407 kts 221°
2026-05-05 02:46 32.98504 -119.97870 34697 ft 404 kts 222°
2026-05-05 02:46 32.89898 -120.06561 35488 ft 406 kts 222°
2026-05-05 02:46 32.81279 -120.15243 36309 ft 405 kts 222°
2026-05-05 02:47 32.72624 -120.23939 36988 ft 408 kts 222°
2026-05-05 02:47 32.63930 -120.32652 37674 ft 410 kts 222°
2026-05-05 02:47 32.55127 -120.41450 38033 ft 418 kts 222°
2026-05-05 02:48 32.37163 -120.59331 38066 ft 422 kts 223°
2026-05-05 02:48 32.19203 -120.77112 38063 ft 417 kts 223°